Погода в Толпарове

Россия / Республика Башкортостан     54°01′37″N   57°06′00″E
темп.,
°C
ветер,
м/с
пор.,
м/с
влажн.,
%
обл.,
%
осадки,
мм/ч
давл.,
гПа
погр.,
м
27 февраля, сб
сб2723:00−20юв229366 0.0 102221
02:00−22вюв229332 0.0 101955
05:00−20вюв3129166 0.0 1016449
08:00−17юв41595100 0.6 1012595
11:00−15юв41392100 2.3 1010538
14:00−12юв5108999 0.4 1007595
17:00−11вюв3987100 0.8 1005501
20:00−12вюв2595100 0.3 1004244
28 февраля, вс
вс2823:00−13вюв2296100 0.8 1003106
02:00−13вюв229693 0.3 100162
05:00−11вюв229697 0.6 100176
08:00−10вюв2296100 0.4 100041
11:00−5юв1393100 0.6 1000226
14:00−1юв1199100 0.5 1000244
17:00−2сз239599 1.2 1001329
20:00−8зсз229895 0.3 100430
1 марта, пн
пн123:00−12з119896 0.4 100821
02:00−13зюз119797 0.3 101021
05:00−13з119799 0.8 101228
08:00−15з119799 0.3 101420
11:00−12зсз119099 0.4 1015299
14:00−10зсз2287100 0.1 1015487
17:00−12зсз2292100 0.3 1016396
20:00−17зсз1199100 0.1 101820
2 марта, вт
вт223:00−21зсз0110099 0.1 101920
02:00−23з1110094 0.0 101920
05:00−23юз1110097 0.1 102020
08:00−23ю229997 0.0 101920
11:00−16ююз239070 0.0 1018268
14:00−11юз358538 0.0 1016505
17:00−11ююз388436 0.0 1014538
20:00−15ю41089100 0.0 1013386
3 марта, ср
ср323:00−15ю3109499 0.1 1013428
02:00−14ю3994100 0.3 1011396
05:00−14ююв3895100 0.8 1009340
08:00−13юв259697 0.3 1008205
11:00−8ююв379298 0.5 1007406
14:00−4ю3790100 0.3 1005687
17:00−3ююв3694100 0.9 1004522
20:00−5юв1197100 0.6 100432